START_TIME,STEP,MOV.,P11,t_acc.,P23,t_acc.,P27,t_acc.,A4,t_acc.
1979-07-23 03:00:22.680 ,1,0,0.,4.8,0.,4.8,0.,4.8,0.,4.8
1979-07-23 03:00:27.480 ,1,0,1.,4.8,0.,4.8,0.,4.8,0.,4.8
1979-07-23 03:00:32.280 ,1,0,0.,4.8,0.,4.8,0.,4.8,0.,4.8
1979-07-23 03:00:37.080 ,1,0,1.,4.8,0.,4.8,0.,4.8,0.,4.8
1979-07-23 03:00:41.880 ,1,0,1.,4.8,0.,4.8,0.,4.8,0.,4.8
1979-07-23 03:00:46.680 ,2,0,0.,4.8,0.,4.8,0.,4.8,0.,4.8
1979-07-23 03:00:51.480 ,2,0,1.,4.8,0.,4.8,1.,4.8,0.,4.8
1979-07-23 03:00:56.280 ,2,0,0.,4.8,0.,4.8,0.,4.8,0.,4.8
1979-07-23 03:01:01.080 ,2,0,1.,4.8,0.,4.8,0.,4.8,0.,4.8
1979-07-23 03:01:05.880 ,2,0,3.,4.8,0.,4.8,0.,4.8,0.,4.8
1979-07-23 03:01:10.680 ,2,0,0.,4.8,0.,4.8,0.,4.8,0.,4.8
1979-07-23 03:01:15.480 ,2,0,2.,4.8,0.,4.8,0.,4.8,0.,4.8
1979-07-23 03:01:20.280 ,2,0,0.,4.8,0.,4.8,0.,4.8,0.,4.8
1979-07-23 03:01:25.080 ,2,0,0.,4.8,0.,4.8,0.,4.8,0.,4.8
1979-07-23 03:01:29.880 ,2,0,1.,4.8,0.,4.8,0.,4.8,0.,4.8
1979-07-23 03:01:34.680 ,3,0,2.,4.8,0.,4.8,1.,4.8,0.,4.8
1979-07-23 03:01:39.480 ,3,0,0.,4.8,0.,4.8,0.,4.8,0.,4.8
1979-07-23 03:01:44.280 ,3,0,2.,4.8,0.,4.8,0.,4.8,0.,4.8
1979-07-23 03:01:49.080 ,3,0,5.,4.8,0.,4.8,0.,4.8,0.,4.8
1979-07-23 03:01:53.880 ,3,0,0.,4.8,0.,4.8,0.,4.8,0.,4.8
1979-07-23 03:01:58.680 ,3,0,0.,4.8,0.,4.8,0.,4.8,0.,4.8
1979-07-23 03:02:03.480 ,3,0,1.,4.8,0.,4.8,0.,4.8,0.,4.8
1979-07-23 03:02:08.280 ,3,0,0.,4.8,0.,4.8,0.,4.8,0.,4.8
1979-07-23 03:02:13.080 ,3,0,3.,4.8,0.,4.8,0.,4.8,0.,4.8
1979-07-23 03:02:17.880 ,3,0,1.,4.8,0.,4.8,0.,4.8,0.,4.8
1979-07-23 03:03:10.680 ,0,0,1.,4.8,0.,4.8,0.,4.8,0.,4.8
1979-07-23 03:03:15.480 ,0,0,3.,4.8,0.,4.8,0.,4.8,0.,4.8
1979-07-23 03:03:20.280 ,0,0,0.,4.8,0.,4.8,0.,4.8,0.,4.8
1979-07-23 03:03:25.080 ,0,0,1.,4.8,0.,4.8,0.,4.8,0.,4.8
1979-07-23 03:03:29.880 ,0,0,1.,4.8,0.,4.8,0.,4.8,0.,4.8
1979-07-23 03:03:34.680 ,0,0,0.,4.8,0.,4.8,0.,4.8,0.,4.8
1979-07-23 03:03:39.480 ,0,0,0.,4.8,0.,4.8,0.,4.8,0.,4.8
1979-07-23 03:03:44.280 ,0,0,1.,4.8,0.,4.8,1.,4.8,0.,4.8
1979-07-23 03:03:49.080 ,0,0,0.,4.8,0.,4.8,0.,4.8,0.,4.8
1979-07-23 03:03:53.880 ,0,0,0.,4.8,0.,4.8,0.,4.8,0.,4.8
1979-07-23 03:03:58.680 ,6,0,2.,4.8,0.,4.8,0.,4.8,0.,4.8
1979-07-23 03:04:03.480 ,6,0,0.,4.8,0.,4.8,0.,4.8,0.,4.8
1979-07-23 03:04:08.280 ,6,0,0.,4.8,0.,4.8,0.,4.8,0.,4.8
1979-07-23 03:04:13.080 ,6,0,0.,4.8,0.,4.8,1.,4.8,0.,4.8
1979-07-23 03:04:17.880 ,6,0,2.,4.8,0.,4.8,0.,4.8,0.,4.8
1979-07-23 03:04:22.680 ,6,0,0.,4.8,0.,4.8,0.,4.8,0.,4.8
1979-07-23 03:04:27.480 ,6,0,2.,4.8,0.,4.8,0.,4.8,0.,4.8
1979-07-23 03:04:32.280 ,6,0,2.,4.8,0.,4.8,0.,4.8,0.,4.8
1979-07-23 03:04:37.080 ,6,0,0.,4.8,0.,4.8,0.,4.8,1.,4.8
1979-07-23 03:04:41.880 ,6,0,1.,4.8,0.,4.8,0.,4.8,0.,4.8
1979-07-23 03:04:46.680 ,7,0,0.,4.8,0.,4.8,1.,4.8,0.,4.8
1979-07-23 03:04:51.480 ,7,0,1.,4.8,0.,4.8,0.,4.8,0.,4.8
1979-07-23 03:04:56.280 ,7,0,1.,4.8,0.,4.8,0.,4.8,0.,4.8
1979-07-23 03:05:01.080 ,7,0,0.,4.8,0.,4.8,0.,4.8,0.,4.8
1979-07-23 03:05:05.880 ,7,0,0.,4.8,0.,4.8,0.,4.8,0.,4.8
1979-07-23 03:05:10.680 ,7,0,0.,4.8,0.,4.8,1.,4.8,0.,4.8
1979-07-23 03:05:15.480 ,7,0,0.,4.8,0.,4.8,0.,4.8,0.,4.8
1979-07-23 03:05:20.280 ,7,0,0.,4.8,0.,4.8,0.,4.8,0.,4.8
1979-07-23 03:05:25.080 ,7,0,2.,4.8,0.,4.8,0.,4.8,0.,4.8
1979-07-23 03:05:29.880 ,7,0,0.,4.8,0.,4.8,1.,4.8,0.,4.8
1979-07-23 03:05:34.680 ,7,0,0.,4.8,0.,4.8,1.,4.8,0.,4.8
1979-07-23 03:05:39.480 ,7,0,0.,4.8,1.,4.8,0.,4.8,0.,4.8
1979-07-23 03:05:44.280 ,7,0,1.,4.8,0.,4.8,0.,4.8,0.,4.8
1979-07-23 03:05:49.080 ,7,0,0.,4.8,0.,4.8,0.,4.8,0.,4.8
1979-07-23 03:05:53.880 ,7,0,0.,4.8,0.,4.8,1.,4.8,0.,4.8
1979-07-23 03:05:58.680 ,7,0,1.,4.8,0.,4.8,0.,4.8,0.,4.8
1979-07-23 03:06:03.480 ,7,0,1.,4.8,0.,4.8,0.,4.8,0.,4.8
1979-07-23 03:06:08.280 ,7,0,0.,4.8,1.,4.8,0.,4.8,0.,4.8
1979-07-23 03:06:13.080 ,7,0,1.,4.8,0.,4.8,0.,4.8,0.,4.8
1979-07-23 03:06:17.880 ,7,0,0.,4.8,0.,4.8,0.,4.8,0.,4.8
1979-07-23 03:06:22.680 ,6,0,0.,4.8,0.,4.8,0.,4.8,0.,4.8
1979-07-23 03:06:27.480 ,6,0,0.,4.8,0.,4.8,0.,4.8,0.,4.8
1979-07-23 03:06:32.280 ,6,0,0.,4.8,0.,4.8,0.,4.8,0.,4.8
1979-07-23 03:06:37.080 ,6,0,0.,4.8,0.,4.8,1.,4.8,0.,4.8
1979-07-23 03:06:41.880 ,6,0,0.,4.8,0.,4.8,0.,4.8,0.,4.8
1979-07-23 03:06:46.680 ,6,0,0.,4.8,0.,4.8,0.,4.8,0.,4.8
1979-07-23 03:06:51.480 ,6,0,1.,4.8,0.,4.8,0.,4.8,0.,4.8
1979-07-23 03:06:56.280 ,6,0,0.,4.8,0.,4.8,0.,4.8,0.,4.8
1979-07-23 03:07:01.080 ,6,0,0.,4.8,0.,4.8,0.,4.8,0.,4.8
1979-07-23 03:07:05.880 ,6,0,0.,4.8,0.,4.8,0.,4.8,0.,4.8
1979-07-23 03:07:10.680 ,5,0,0.,4.8,0.,4.8,1.,4.8,0.,4.8
1979-07-23 03:07:15.480 ,5,0,1.,4.8,0.,4.8,0.,4.8,0.,4.8
1979-07-23 03:07:20.280 ,5,0,1.,4.8,0.,4.8,0.,4.8,0.,4.8
1979-07-23 03:07:25.080 ,5,0,0.,4.8,0.,4.8,0.,4.8,0.,4.8
1979-07-23 03:07:29.880 ,5,0,0.,4.8,0.,4.8,1.,4.8,0.,4.8
1979-07-23 03:07:34.680 ,5,0,0.,4.8,0.,4.8,0.,4.8,0.,4.8
1979-07-23 03:07:39.480 ,5,0,1.,4.8,0.,4.8,0.,4.8,0.,4.8
1979-07-23 03:07:44.280 ,5,0,0.,4.8,0.,4.8,0.,4.8,1.,4.8
1979-07-23 03:07:49.080 ,5,0,0.,4.8,0.,4.8,0.,4.8,0.,4.8
1979-07-23 03:07:53.880 ,5,0,0.,4.8,0.,4.8,0.,4.8,0.,4.8
1979-07-23 03:07:58.680 ,4,0,0.,4.8,0.,4.8,0.,4.8,0.,4.8
1979-07-23 03:08:03.480 ,4,0,3.,4.8,0.,4.8,0.,4.8,0.,4.8
1979-07-23 03:08:08.280 ,4,0,0.,4.8,0.,4.8,0.,4.8,0.,4.8
1979-07-23 03:08:13.080 ,4,0,0.,4.8,0.,4.8,0.,4.8,0.,4.8
1979-07-23 03:08:17.880 ,4,0,1.,4.8,0.,4.8,0.,4.8,0.,4.8
1979-07-23 03:08:22.680 ,4,0,1.,4.8,0.,4.8,0.,4.8,0.,4.8
1979-07-23 03:08:27.480 ,4,0,1.,4.8,0.,4.8,0.,4.8,0.,4.8
1979-07-23 03:08:32.280 ,4,0,1.,4.8,0.,4.8,0.,4.8,0.,4.8
1979-07-23 03:08:37.080 ,4,0,0.,4.8,0.,4.8,0.,4.8,0.,4.8
1979-07-23 03:08:41.880 ,4,0,0.,4.8,0.,4.8,0.,4.8,0.,4.8
1979-07-23 03:08:46.680 ,3,0,1.,4.8,0.,4.8,1.,4.8,0.,4.8
1979-07-23 03:08:51.480 ,3,0,1.,4.8,0.,4.8,0.,4.8,0.,4.8
1979-07-23 03:08:56.280 ,3,0,1.,4.8,0.,4.8,0.,4.8,0.,4.8
1979-07-23 03:09:01.080 ,3,0,1.,4.8,0.,4.8,0.,4.8,0.,4.8
1979-07-23 03:09:05.880 ,3,0,1.,4.8,0.,4.8,0.,4.8,0.,4.8
1979-07-23 03:09:10.680 ,3,0,0.,4.8,1.,4.8,0.,4.8,0.,4.8
1979-07-23 03:09:15.480 ,3,0,1.,4.8,0.,4.8,0.,4.8,0.,4.8
1979-07-23 03:09:20.280 ,3,0,0.,4.8,0.,4.8,1.,4.8,0.,4.8
1979-07-23 03:09:25.080 ,3,0,0.,4.8,0.,4.8,0.,4.8,0.,4.8
1979-07-23 03:09:29.880 ,3,0,0.,4.8,0.,4.8,1.,4.8,0.,4.8
1979-07-23 03:09:34.680 ,2,0,0.,4.8,0.,4.8,0.,4.8,0.,4.8
1979-07-23 03:09:39.480 ,2,0,1.,4.8,0.,4.8,0.,4.8,0.,4.8
1979-07-23 03:09:44.280 ,2,0,0.,4.8,0.,4.8,0.,4.8,0.,4.8
1979-07-23 03:09:49.080 ,2,0,0.,4.8,0.,4.8,0.,4.8,0.,4.8
1979-07-23 03:09:53.880 ,2,0,1.,4.8,0.,4.8,0.,4.8,1.,4.8
1979-07-23 03:09:58.680 ,2,0,2.,4.8,0.,4.8,0.,4.8,0.,4.8
1979-07-23 03:10:03.480 ,2,0,0.,4.8,0.,4.8,0.,4.8,0.,4.8
1979-07-23 03:10:08.280 ,2,0,2.,4.8,0.,4.8,0.,4.8,0.,4.8
1979-07-23 03:10:13.080 ,2,0,0.,4.8,0.,4.8,0.,4.8,0.,4.8
1979-07-23 03:10:17.880 ,2,0,1.,4.8,0.,4.8,0.,4.8,0.,4.8
1979-07-23 03:10:22.680 ,1,0,1.,4.8,0.,4.8,0.,4.8,0.,4.8
1979-07-23 03:10:27.480 ,1,0,0.,4.8,0.,4.8,0.,4.8,0.,4.8
1979-07-23 03:10:32.280 ,1,0,2.,4.8,0.,4.8,0.,4.8,0.,4.8
1979-07-23 03:10:37.080 ,1,0,1.,4.8,0.,4.8,0.,4.8,0.,4.8
1979-07-23 03:10:41.880 ,1,0,0.,4.8,0.,4.8,0.,4.8,0.,4.8
1979-07-23 03:10:46.680 ,1,0,1.,4.8,0.,4.8,0.,4.8,0.,4.8
1979-07-23 03:10:51.480 ,1,0,1.,4.8,0.,4.8,0.,4.8,0.,4.8
1979-07-23 03:10:56.280 ,1,0,0.,4.8,0.,4.8,0.,4.8,0.,4.8
1979-07-23 03:11:01.080 ,1,0,0.,4.8,0.,4.8,0.,4.8,0.,4.8
1979-07-23 03:11:05.880 ,1,0,1.,4.8,0.,4.8,0.,4.8,0.,4.8
1979-07-23 03:11:10.680 ,0,0,1.,4.8,0.,4.8,0.,4.8,0.,4.8
1979-07-23 03:11:15.480 ,0,0,0.,4.8,0.,4.8,0.,4.8,0.,4.8
1979-07-23 03:11:20.280 ,0,0,0.,4.8,0.,4.8,0.,4.8,0.,4.8
1979-07-23 03:11:25.080 ,0,0,1.,4.8,0.,4.8,1.,4.8,0.,4.8
1979-07-23 03:11:29.880 ,0,0,1.,4.8,0.,4.8,0.,4.8,0.,4.8
1979-07-23 03:11:34.680 ,0,0,1.,4.8,0.,4.8,0.,4.8,0.,4.8
1979-07-23 03:11:39.480 ,0,0,0.,4.8,0.,4.8,0.,4.8,0.,4.8
1979-07-23 03:11:44.280 ,0,0,2.,4.8,0.,4.8,1.,4.8,0.,4.8
1979-07-23 03:11:49.080 ,0,0,1.,4.8,0.,4.8,0.,4.8,0.,4.8
1979-07-23 03:11:53.880 ,0,0,0.,4.8,0.,4.8,0.,4.8,0.,4.8
1979-07-23 03:11:58.680 ,0,0,2.,4.8,0.,4.8,0.,4.8,0.,4.8
1979-07-23 03:12:03.480 ,0,0,0.,4.8,0.,4.8,0.,4.8,0.,4.8
1979-07-23 03:12:08.280 ,0,0,0.,4.8,0.,4.8,0.,4.8,0.,4.8
1979-07-23 03:12:13.080 ,0,0,0.,4.8,0.,4.8,0.,4.8,0.,4.8
1979-07-23 03:12:17.880 ,0,0,1.,4.8,0.,4.8,0.,4.8,0.,4.8
1979-07-23 03:12:22.680 ,0,0,1.,4.8,0.,4.8,0.,4.8,0.,4.8
1979-07-23 03:12:27.480 ,0,0,2.,4.8,0.,4.8,0.,4.8,0.,4.8
1979-07-23 03:12:32.280 ,0,0,0.,4.8,0.,4.8,0.,4.8,0.,4.8
1979-07-23 03:12:37.080 ,0,0,1.,4.8,0.,4.8,0.,4.8,0.,4.8
1979-07-23 03:12:41.880 ,0,0,1.,4.8,0.,4.8,0.,4.8,0.,4.8
1979-07-23 03:12:46.680 ,1,0,3.,4.8,0.,4.8,0.,4.8,0.,4.8
1979-07-23 03:12:51.480 ,1,0,1.,4.8,0.,4.8,0.,4.8,0.,4.8
1979-07-23 03:12:56.280 ,1,0,2.,4.8,0.,4.8,0.,4.8,0.,4.8
1979-07-23 03:13:01.080 ,1,0,1.,4.8,0.,4.8,0.,4.8,0.,4.8
1979-07-23 03:13:05.880 ,1,0,1.,4.8,0.,4.8,0.,4.8,0.,4.8
1979-07-23 03:13:10.680 ,1,0,1.,4.8,0.,4.8,0.,4.8,1.,4.8
1979-07-23 03:13:15.480 ,1,0,0.,4.8,0.,4.8,0.,4.8,0.,4.8
1979-07-23 03:13:20.280 ,1,0,0.,4.8,0.,4.8,0.,4.8,0.,4.8
1979-07-23 03:13:25.080 ,1,0,0.,4.8,0.,4.8,0.,4.8,0.,4.8
1979-07-23 03:13:29.880 ,1,0,0.,4.8,0.,4.8,0.,4.8,0.,4.8
1979-07-23 03:13:34.680 ,2,0,1.,4.8,0.,4.8,0.,4.8,0.,4.8
1979-07-23 03:13:39.480 ,2,0,0.,4.8,0.,4.8,0.,4.8,0.,4.8
1979-07-23 03:13:44.280 ,2,0,0.,4.8,0.,4.8,0.,4.8,0.,4.8
1979-07-23 03:13:49.080 ,2,0,0.,4.8,0.,4.8,0.,4.8,1.,4.8
1979-07-23 03:13:53.880 ,2,0,1.,4.8,0.,4.8,0.,4.8,0.,4.8
1979-07-23 03:13:58.680 ,2,0,1.,4.8,0.,4.8,0.,4.8,0.,4.8
1979-07-23 03:14:03.480 ,2,0,0.,4.8,0.,4.8,0.,4.8,0.,4.8
1979-07-23 03:14:08.280 ,2,0,0.,4.8,0.,4.8,0.,4.8,0.,4.8
1979-07-23 03:14:13.080 ,2,0,0.,4.8,0.,4.8,0.,4.8,1.,4.8
1979-07-23 03:14:17.880 ,2,0,0.,4.8,0.,4.8,0.,4.8,0.,4.8
1979-07-23 03:14:22.680 ,3,0,0.,4.8,0.,4.8,0.,4.8,0.,4.8
1979-07-23 03:14:27.480 ,3,0,1.,4.8,0.,4.8,0.,4.8,0.,4.8
1979-07-23 03:14:32.280 ,3,0,2.,4.8,0.,4.8,0.,4.8,1.,4.8
1979-07-23 03:14:37.080 ,3,0,0.,4.8,0.,4.8,1.,4.8,0.,4.8
1979-07-23 03:14:41.880 ,3,0,0.,4.8,0.,4.8,1.,4.8,0.,4.8
1979-07-23 03:14:46.680 ,3,0,2.,4.8,0.,4.8,0.,4.8,0.,4.8
1979-07-23 03:14:51.480 ,3,0,0.,4.8,0.,4.8,0.,4.8,0.,4.8
1979-07-23 03:14:56.280 ,3,0,0.,4.8,0.,4.8,0.,4.8,0.,4.8
1979-07-23 03:15:01.080 ,3,0,0.,4.8,0.,4.8,0.,4.8,1.,4.8
1979-07-23 03:15:05.880 ,3,0,0.,4.8,0.,4.8,0.,4.8,0.,4.8
1979-07-23 03:15:10.680 ,4,0,2.,4.8,0.,4.8,0.,4.8,0.,4.8
1979-07-23 03:15:15.480 ,4,0,0.,4.8,0.,4.8,0.,4.8,0.,4.8
1979-07-23 03:15:20.280 ,4,0,0.,4.8,0.,4.8,0.,4.8,0.,4.8
1979-07-23 03:15:25.080 ,4,0,0.,4.8,0.,4.8,0.,4.8,0.,4.8
1979-07-23 03:15:29.880 ,4,0,1.,4.8,0.,4.8,0.,4.8,0.,4.8
1979-07-23 03:15:34.680 ,4,0,1.,4.8,0.,4.8,0.,4.8,0.,4.8
1979-07-23 03:15:39.480 ,4,0,0.,4.8,0.,4.8,0.,4.8,0.,4.8
1979-07-23 03:15:44.280 ,4,0,1.,4.8,0.,4.8,0.,4.8,0.,4.8
1979-07-23 03:15:49.080 ,4,0,0.,4.8,0.,4.8,0.,4.8,0.,4.8
1979-07-23 03:15:53.880 ,4,0,2.,4.8,0.,4.8,0.,4.8,0.,4.8
1979-07-23 03:15:58.680 ,5,0,2.,4.8,0.,4.8,0.,4.8,1.,4.8
1979-07-23 03:16:03.480 ,5,0,0.,4.8,0.,4.8,1.,4.8,0.,4.8
1979-07-23 03:16:08.280 ,5,0,0.,4.8,0.,4.8,0.,4.8,0.,4.8
1979-07-23 03:16:13.080 ,5,0,3.,4.8,0.,4.8,0.,4.8,0.,4.8
1979-07-23 03:16:17.880 ,5,0,0.,4.8,0.,4.8,0.,4.8,0.,4.8
1979-07-23 03:16:22.680 ,5,0,2.,4.8,0.,4.8,0.,4.8,0.,4.8
1979-07-23 03:16:27.480 ,5,0,1.,4.8,0.,4.8,1.,4.8,0.,4.8
1979-07-23 03:16:32.280 ,5,0,2.,4.8,0.,4.8,0.,4.8,0.,4.8
1979-07-23 03:16:37.080 ,5,0,1.,4.8,0.,4.8,0.,4.8,0.,4.8
1979-07-23 03:16:41.880 ,5,0,0.,4.8,0.,4.8,0.,4.8,0.,4.8
1979-07-23 03:16:46.680 ,6,0,1.,4.8,0.,4.8,0.,4.8,0.,4.8
1979-07-23 03:16:51.480 ,6,0,0.,4.8,0.,4.8,0.,4.8,0.,4.8
1979-07-23 03:16:56.280 ,6,0,1.,4.8,1.,4.8,0.,4.8,0.,4.8
1979-07-23 03:17:01.080 ,6,0,0.,4.8,0.,4.8,0.,4.8,0.,4.8
1979-07-23 03:17:05.880 ,6,0,0.,4.8,0.,4.8,0.,4.8,0.,4.8
1979-07-23 03:17:10.680 ,6,0,0.,4.8,0.,4.8,0.,4.8,0.,4.8
1979-07-23 03:17:15.480 ,6,0,0.,4.8,0.,4.8,0.,4.8,0.,4.8
1979-07-23 03:17:20.280 ,6,0,0.,4.8,0.,4.8,1.,4.8,0.,4.8
1979-07-23 03:17:25.080 ,6,0,0.,4.8,0.,4.8,0.,4.8,0.,4.8
1979-07-23 03:17:29.880 ,6,0,0.,4.8,0.,4.8,0.,4.8,0.,4.8
1979-07-23 03:17:34.680 ,7,0,0.,4.8,0.,4.8,0.,4.8,0.,4.8
1979-07-23 03:17:39.480 ,7,0,1.,4.8,0.,4.8,0.,4.8,0.,4.8
1979-07-23 03:17:44.280 ,7,0,1.,4.8,0.,4.8,1.,4.8,0.,4.8
1979-07-23 03:17:49.080 ,7,0,0.,4.8,0.,4.8,0.,4.8,0.,4.8
1979-07-23 03:17:53.880 ,7,0,0.,4.8,0.,4.8,0.,4.8,0.,4.8
1979-07-23 03:17:58.680 ,7,0,2.,4.8,0.,4.8,0.,4.8,0.,4.8
1979-07-23 03:18:03.480 ,7,0,1.,4.8,0.,4.8,0.,4.8,0.,4.8
1979-07-23 03:18:08.280 ,7,0,1.,4.8,0.,4.8,0.,4.8,0.,4.8
1979-07-23 03:18:13.080 ,7,0,0.,4.8,0.,4.8,1.,4.8,0.,4.8
1979-07-23 03:18:17.880 ,7,0,0.,4.8,0.,4.8,1.,4.8,0.,4.8
1979-07-23 03:18:22.680 ,7,0,0.,4.8,0.,4.8,0.,4.8,0.,4.8
1979-07-23 03:18:27.480 ,7,0,1.,4.8,0.,4.8,0.,4.8,0.,4.8
1979-07-23 03:18:32.280 ,7,0,1.,4.8,0.,4.8,0.,4.8,0.,4.8
1979-07-23 03:18:37.080 ,7,0,0.,4.8,0.,4.8,0.,4.8,0.,4.8
1979-07-23 03:18:41.880 ,7,0,0.,4.8,0.,4.8,0.,4.8,0.,4.8
1979-07-23 03:18:46.680 ,7,0,2.,4.8,0.,4.8,0.,4.8,0.,4.8
1979-07-23 03:18:51.480 ,7,0,0.,4.8,0.,4.8,1.,4.8,0.,4.8
1979-07-23 03:18:56.280 ,7,0,0.,4.8,0.,4.8,0.,4.8,0.,4.8
1979-07-23 03:19:01.080 ,7,0,0.,4.8,0.,4.8,0.,4.8,0.,4.8
1979-07-23 03:19:05.880 ,7,0,0.,4.8,0.,4.8,0.,4.8,0.,4.8
1979-07-23 03:19:10.680 ,6,0,0.,4.8,0.,4.8,1.,4.8,0.,4.8
1979-07-23 03:19:15.480 ,6,0,1.,4.8,0.,4.8,0.,4.8,0.,4.8
1979-07-23 03:19:20.280 ,6,0,0.,4.8,0.,4.8,1.,4.8,0.,4.8
1979-07-23 03:19:25.080 ,6,0,0.,4.8,1.,4.8,0.,4.8,0.,4.8
1979-07-23 03:19:29.880 ,6,0,1.,4.8,0.,4.8,0.,4.8,0.,4.8
1979-07-23 03:19:34.680 ,6,0,0.,4.8,0.,4.8,1.,4.8,0.,4.8
1979-07-23 03:19:39.480 ,6,0,1.,4.8,0.,4.8,0.,4.8,0.,4.8
1979-07-23 03:19:44.280 ,6,0,1.,4.8,0.,4.8,0.,4.8,0.,4.8
1979-07-23 03:19:49.080 ,6,0,2.,4.8,0.,4.8,0.,4.8,0.,4.8
1979-07-23 03:19:53.880 ,6,0,0.,4.8,0.,4.8,0.,4.8,1.,4.8
1979-07-23 03:19:58.680 ,5,0,0.,4.8,0.,4.8,0.,4.8,0.,4.8
1979-07-23 03:20:03.480 ,5,0,1.,4.8,1.,4.8,0.,4.8,0.,4.8
1979-07-23 03:20:08.280 ,5,0,0.,4.8,0.,4.8,1.,4.8,0.,4.8
1979-07-23 03:20:13.080 ,5,0,0.,4.8,0.,4.8,0.,4.8,0.,4.8
1979-07-23 03:20:17.880 ,5,0,1.,4.8,0.,4.8,0.,4.8,0.,4.8
1979-07-23 03:20:22.680 ,5,0,0.,4.8,0.,4.8,0.,4.8,0.,4.8
1979-07-23 03:20:27.480 ,5,0,0.,4.8,0.,4.8,0.,4.8,0.,4.8
1979-07-23 03:20:32.280 ,5,0,0.,4.8,0.,4.8,0.,4.8,0.,4.8
1979-07-23 03:20:37.080 ,5,0,4.,4.8,0.,4.8,0.,4.8,0.,4.8
1979-07-23 03:20:41.880 ,5,0,0.,4.8,0.,4.8,1.,4.8,0.,4.8
1979-07-23 03:20:46.680 ,4,0,0.,4.8,0.,4.8,1.,4.8,0.,4.8
1979-07-23 03:20:51.480 ,4,0,1.,4.8,0.,4.8,0.,4.8,0.,4.8
1979-07-23 03:20:56.280 ,4,0,2.,4.8,0.,4.8,0.,4.8,0.,4.8
1979-07-23 03:21:01.080 ,4,0,3.,4.8,0.,4.8,0.,4.8,0.,4.8
1979-07-23 03:21:05.880 ,4,0,1.,4.8,0.,4.8,0.,4.8,0.,4.8
1979-07-23 03:21:10.680 ,4,0,0.,4.8,0.,4.8,0.,4.8,0.,4.8
1979-07-23 03:21:15.480 ,4,0,0.,4.8,0.,4.8,0.,4.8,0.,4.8
1979-07-23 03:21:20.280 ,4,0,1.,4.8,0.,4.8,0.,4.8,0.,4.8
1979-07-23 03:21:25.080 ,4,0,0.,4.8,0.,4.8,0.,4.8,0.,4.8
1979-07-23 03:21:29.880 ,4,0,3.,4.8,0.,4.8,1.,4.8,0.,4.8
1979-07-23 03:21:34.680 ,3,0,1.,4.8,0.,4.8,0.,4.8,0.,4.8
1979-07-23 03:21:39.480 ,3,0,1.,4.8,0.,4.8,0.,4.8,0.,4.8
1979-07-23 03:21:44.280 ,3,0,1.,4.8,0.,4.8,0.,4.8,0.,4.8
1979-07-23 03:21:49.080 ,3,0,0.,4.8,0.,4.8,0.,4.8,0.,4.8
1979-07-23 03:21:53.880 ,3,0,0.,4.8,0.,4.8,0.,4.8,0.,4.8
1979-07-23 03:21:58.680 ,3,0,0.,4.8,0.,4.8,0.,4.8,0.,4.8
1979-07-23 03:22:03.480 ,3,0,2.,4.8,0.,4.8,0.,4.8,0.,4.8
1979-07-23 03:22:08.280 ,3,0,1.,4.8,0.,4.8,0.,4.8,0.,4.8
1979-07-23 03:22:13.080 ,3,0,0.,4.8,0.,4.8,0.,4.8,0.,4.8
1979-07-23 03:22:17.880 ,3,0,3.,4.8,0.,4.8,0.,4.8,0.,4.8
1979-07-23 03:22:22.680 ,2,0,0.,4.8,0.,4.8,0.,4.8,0.,4.8
1979-07-23 03:22:27.480 ,2,0,1.,4.8,0.,4.8,1.,4.8,0.,4.8
1979-07-23 03:22:32.280 ,2,0,0.,4.8,0.,4.8,1.,4.8,0.,4.8
1979-07-23 03:22:37.080 ,2,0,1.,4.8,0.,4.8,0.,4.8,0.,4.8
1979-07-23 03:22:41.880 ,2,0,0.,4.8,0.,4.8,0.,4.8,0.,4.8
1979-07-23 03:22:46.680 ,2,0,2.,4.8,0.,4.8,0.,4.8,0.,4.8
1979-07-23 03:22:51.480 ,2,0,3.,4.8,0.,4.8,0.,4.8,0.,4.8
1979-07-23 03:22:56.280 ,2,0,1.,4.8,0.,4.8,0.,4.8,0.,4.8
1979-07-23 03:23:01.080 ,2,0,1.,4.8,0.,4.8,1.,4.8,0.,4.8
1979-07-23 03:23:05.880 ,2,0,0.,4.8,0.,4.8,1.,4.8,0.,4.8
1979-07-23 03:23:10.680 ,1,0,0.,4.8,0.,4.8,1.,4.8,0.,4.8
1979-07-23 03:23:15.480 ,1,0,1.,4.8,0.,4.8,0.,4.8,0.,4.8
1979-07-23 03:23:20.280 ,1,0,0.,4.8,0.,4.8,0.,4.8,0.,4.8
1979-07-23 03:23:25.080 ,1,0,0.,4.8,0.,4.8,0.,4.8,0.,4.8
1979-07-23 03:23:29.880 ,1,0,0.,4.8,0.,4.8,0.,4.8,0.,4.8
1979-07-23 03:23:34.680 ,1,0,2.,4.8,0.,4.8,0.,4.8,0.,4.8
1979-07-23 03:23:39.480 ,1,0,1.,4.8,0.,4.8,0.,4.8,0.,4.8
1979-07-23 03:23:44.280 ,1,0,0.,4.8,0.,4.8,0.,4.8,0.,4.8
1979-07-23 03:23:49.080 ,1,0,1.,4.8,0.,4.8,1.,4.8,0.,4.8
1979-07-23 03:23:53.880 ,1,0,0.,4.8,0.,4.8,2.,4.8,0.,4.8
1979-07-23 03:23:58.680 ,0,0,1.,4.8,0.,4.8,0.,4.8,0.,4.8
1979-07-23 03:24:03.480 ,0,0,2.,4.8,0.,4.8,0.,4.8,1.,4.8
1979-07-23 03:24:08.280 ,0,0,0.,4.8,0.,4.8,0.,4.8,0.,4.8
1979-07-23 03:24:13.080 ,0,0,0.,4.8,0.,4.8,0.,4.8,0.,4.8
1979-07-23 03:24:17.880 ,0,0,0.,4.8,0.,4.8,0.,4.8,0.,4.8
1979-07-23 03:24:22.680 ,0,0,0.,4.8,0.,4.8,0.,4.8,0.,4.8
1979-07-23 03:24:27.480 ,0,0,1.,4.8,0.,4.8,0.,4.8,0.,4.8
1979-07-23 03:24:32.280 ,0,0,0.,4.8,0.,4.8,0.,4.8,0.,4.8
1979-07-23 03:24:37.080 ,0,0,1.,4.8,0.,4.8,0.,4.8,0.,4.8
1979-07-23 03:24:41.880 ,0,0,0.,4.8,0.,4.8,0.,4.8,0.,4.8
1979-07-23 03:24:46.680 ,0,0,0.,4.8,0.,4.8,0.,4.8,0.,4.8
1979-07-23 03:24:51.480 ,0,0,1.,4.8,0.,4.8,0.,4.8,0.,4.8
1979-07-23 03:24:56.280 ,0,0,0.,4.8,0.,4.8,0.,4.8,0.,4.8
1979-07-23 03:25:01.080 ,0,0,0.,4.8,0.,4.8,0.,4.8,0.,4.8
1979-07-23 03:25:05.880 ,0,0,1.,4.8,0.,4.8,0.,4.8,0.,4.8
1979-07-23 03:25:10.680 ,0,0,5.,4.8,0.,4.8,0.,4.8,0.,4.8
1979-07-23 03:25:15.480 ,0,0,0.,4.8,0.,4.8,0.,4.8,0.,4.8
1979-07-23 03:25:20.280 ,0,0,0.,4.8,0.,4.8,0.,4.8,0.,4.8
1979-07-23 03:25:25.080 ,0,0,0.,4.8,0.,4.8,0.,4.8,0.,4.8
1979-07-23 03:25:29.880 ,0,0,1.,4.8,0.,4.8,0.,4.8,0.,4.8
1979-07-23 03:25:34.680 ,1,0,1.,4.8,0.,4.8,0.,4.8,0.,4.8
1979-07-23 03:25:39.480 ,1,0,0.,4.8,0.,4.8,0.,4.8,0.,4.8
1979-07-23 03:25:44.280 ,1,0,0.,4.8,0.,4.8,0.,4.8,0.,4.8
1979-07-23 03:25:49.080 ,1,0,0.,4.8,0.,4.8,0.,4.8,0.,4.8
1979-07-23 03:25:53.880 ,1,0,1.,4.8,0.,4.8,0.,4.8,0.,4.8
1979-07-23 03:25:58.680 ,1,0,1.,4.8,0.,4.8,0.,4.8,0.,4.8
1979-07-23 03:26:03.480 ,1,0,0.,4.8,0.,4.8,0.,4.8,0.,4.8
1979-07-23 03:26:08.280 ,1,0,0.,4.8,0.,4.8,0.,4.8,0.,4.8
1979-07-23 03:26:13.080 ,1,0,1.,4.8,0.,4.8,0.,4.8,0.,4.8
1979-07-23 03:26:17.880 ,1,0,0.,4.8,0.,4.8,0.,4.8,0.,4.8
1979-07-23 03:26:22.680 ,2,0,0.,4.8,0.,4.8,0.,4.8,0.,4.8
1979-07-23 03:26:27.480 ,2,0,2.,4.8,0.,4.8,0.,4.8,0.,4.8
1979-07-23 03:26:32.280 ,2,0,1.,4.8,0.,4.8,0.,4.8,0.,4.8
1979-07-23 03:26:37.080 ,2,0,0.,4.8,0.,4.8,0.,4.8,0.,4.8
1979-07-23 03:26:41.880 ,2,0,0.,4.8,0.,4.8,0.,4.8,0.,4.8
1979-07-23 03:26:46.680 ,2,0,1.,4.8,0.,4.8,1.,4.8,0.,4.8
1979-07-23 03:26:51.480 ,2,0,0.,4.8,0.,4.8,0.,4.8,0.,4.8
1979-07-23 03:26:56.280 ,2,0,0.,4.8,0.,4.8,0.,4.8,0.,4.8
1979-07-23 03:27:01.080 ,2,0,0.,4.8,0.,4.8,0.,4.8,0.,4.8
1979-07-23 03:27:05.880 ,2,0,1.,4.8,0.,4.8,0.,4.8,0.,4.8
1979-07-23 03:27:58.680 ,0,0,1.,4.8,0.,4.8,0.,4.8,0.,4.8
1979-07-23 03:28:03.480 ,0,0,1.,4.8,0.,4.8,0.,4.8,0.,4.8
1979-07-23 03:28:08.280 ,0,0,0.,4.8,0.,4.8,0.,4.8,0.,4.8
1979-07-23 03:28:13.080 ,0,0,1.,4.8,0.,4.8,1.,4.8,0.,4.8
1979-07-23 03:28:17.880 ,0,0,1.,4.8,0.,4.8,0.,4.8,0.,4.8
1979-07-23 03:28:22.680 ,0,0,1.,4.8,0.,4.8,0.,4.8,0.,4.8
1979-07-23 03:28:27.480 ,0,0,0.,4.8,0.,4.8,0.,4.8,0.,4.8
1979-07-23 03:28:32.280 ,0,0,1.,4.8,0.,4.8,0.,4.8,0.,4.8
1979-07-23 03:28:37.080 ,0,0,1.,4.8,0.,4.8,0.,4.8,0.,4.8
1979-07-23 03:28:41.880 ,0,0,0.,4.8,0.,4.8,0.,4.8,0.,4.8
1979-07-23 03:28:46.680 ,5,0,1.,4.8,0.,4.8,0.,4.8,0.,4.8
1979-07-23 03:28:51.480 ,5,0,0.,4.8,0.,4.8,0.,4.8,0.,4.8
1979-07-23 03:28:56.280 ,5,0,1.,4.8,0.,4.8,0.,4.8,0.,4.8
1979-07-23 03:29:01.080 ,5,0,1.,4.8,0.,4.8,0.,4.8,0.,4.8
1979-07-23 03:29:05.880 ,5,0,2.,4.8,0.,4.8,0.,4.8,0.,4.8
1979-07-23 03:29:10.680 ,5,0,0.,4.8,0.,4.8,0.,4.8,0.,4.8
1979-07-23 03:29:15.480 ,5,0,1.,4.8,0.,4.8,0.,4.8,0.,4.8
1979-07-23 03:29:20.280 ,5,0,0.,4.8,0.,4.8,0.,4.8,0.,4.8
1979-07-23 03:29:25.080 ,5,0,1.,4.8,0.,4.8,0.,4.8,0.,4.8
1979-07-23 03:29:29.880 ,5,0,0.,4.8,0.,4.8,0.,4.8,0.,4.8
1979-07-23 03:29:34.680 ,6,0,2.,4.8,0.,4.8,0.,4.8,0.,4.8
1979-07-23 03:29:39.480 ,6,0,0.,4.8,0.,4.8,0.,4.8,0.,4.8
1979-07-23 03:29:44.280 ,6,0,0.,4.8,0.,4.8,0.,4.8,0.,4.8
1979-07-23 03:29:49.080 ,6,0,0.,4.8,0.,4.8,0.,4.8,0.,4.8
1979-07-23 03:29:53.880 ,6,0,0.,4.8,0.,4.8,0.,4.8,0.,4.8
1979-07-23 03:29:58.680 ,6,0,0.,4.8,0.,4.8,0.,4.8,0.,4.8
1979-07-23 03:30:03.480 ,6,0,2.,4.8,0.,4.8,0.,4.8,0.,4.8
1979-07-23 03:30:08.280 ,6,0,1.,4.8,0.,4.8,0.,4.8,0.,4.8
1979-07-23 03:30:13.080 ,6,0,0.,4.8,0.,4.8,0.,4.8,0.,4.8
1979-07-23 03:30:17.880 ,6,0,0.,4.8,0.,4.8,0.,4.8,0.,4.8
1979-07-23 03:30:22.680 ,7,0,0.,4.8,0.,4.8,0.,4.8,0.,4.8
1979-07-23 03:30:27.480 ,7,0,0.,4.8,0.,4.8,0.,4.8,0.,4.8
1979-07-23 03:30:32.280 ,7,0,0.,4.8,0.,4.8,0.,4.8,0.,4.8
1979-07-23 03:30:37.080 ,7,0,1.,4.8,0.,4.8,0.,4.8,0.,4.8
1979-07-23 03:30:41.880 ,7,0,2.,4.8,0.,4.8,0.,4.8,0.,4.8
1979-07-23 03:30:46.680 ,7,0,2.,4.8,0.,4.8,0.,4.8,0.,4.8
1979-07-23 03:30:51.480 ,7,0,0.,4.8,0.,4.8,0.,4.8,0.,4.8
1979-07-23 03:30:56.280 ,7,0,0.,4.8,0.,4.8,0.,4.8,0.,4.8
1979-07-23 03:31:01.080 ,7,0,0.,4.8,0.,4.8,0.,4.8,0.,4.8
1979-07-23 03:31:05.880 ,7,0,0.,4.8,0.,4.8,0.,4.8,0.,4.8
1979-07-23 03:31:10.680 ,3,1,1.,4.8,0.,4.8,0.,4.8,0.,4.8
1979-07-23 03:31:15.480 ,3,1,1.,4.8,0.,4.8,3.,4.8,0.,4.8
1979-07-23 03:31:20.280 ,3,1,1.,4.8,0.,4.8,0.,4.8,0.,4.8
1979-07-23 03:31:25.080 ,3,1,0.,4.8,0.,4.8,0.,4.8,0.,4.8
1979-07-23 03:31:29.880 ,3,1,2.,4.8,0.,4.8,0.,4.8,0.,4.8
1979-07-23 03:31:34.680 ,0,1,0.,4.8,0.,4.8,0.,4.8,0.,4.8
1979-07-23 03:31:39.480 ,0,1,1.,4.8,0.,4.8,0.,4.8,0.,4.8
1979-07-23 03:31:44.280 ,0,1,1.,4.8,0.,4.8,0.,4.8,0.,4.8
1979-07-23 03:31:49.080 ,0,1,1.,4.8,0.,4.8,0.,4.8,1.,4.8
1979-07-23 03:31:53.880 ,0,1,0.,4.8,0.,4.8,0.,4.8,0.,4.8
1979-07-23 03:31:58.680 ,4,1,1.,4.8,0.,4.8,0.,4.8,0.,4.8
1979-07-23 03:32:03.480 ,4,1,0.,4.8,0.,4.8,1.,4.8,0.,4.8
1979-07-23 03:32:08.280 ,4,1,1.,4.8,0.,4.8,0.,4.8,0.,4.8
1979-07-23 03:32:13.080 ,4,1,2.,4.8,0.,4.8,0.,4.8,0.,4.8
1979-07-23 03:32:17.880 ,4,1,0.,4.8,0.,4.8,0.,4.8,0.,4.8
1979-07-23 03:32:22.680 ,7,1,1.,4.8,0.,4.8,1.,4.8,0.,4.8
1979-07-23 03:32:27.480 ,7,1,0.,4.8,0.,4.8,0.,4.8,0.,4.8
1979-07-23 03:32:32.280 ,7,1,0.,4.8,0.,4.8,0.,4.8,0.,4.8
1979-07-23 03:32:37.080 ,7,1,0.,4.8,0.,4.8,0.,4.8,0.,4.8
1979-07-23 03:32:41.880 ,7,1,0.,4.8,0.,4.8,0.,4.8,0.,4.8
1979-07-23 03:32:46.680 ,3,1,1.,4.8,0.,4.8,0.,4.8,0.,4.8
1979-07-23 03:32:51.480 ,3,1,1.,4.8,0.,4.8,0.,4.8,0.,4.8
1979-07-23 03:32:56.280 ,3,1,2.,4.8,0.,4.8,0.,4.8,0.,4.8
1979-07-23 03:33:01.080 ,3,1,0.,4.8,0.,4.8,0.,4.8,0.,4.8
1979-07-23 03:33:05.880 ,3,1,0.,4.8,0.,4.8,1.,4.8,0.,4.8
1979-07-23 03:33:10.680 ,0,1,0.,4.8,0.,4.8,0.,4.8,0.,4.8
1979-07-23 03:33:15.480 ,0,1,0.,4.8,0.,4.8,0.,4.8,0.,4.8
1979-07-23 03:33:20.280 ,0,1,1.,4.8,0.,4.8,0.,4.8,0.,4.8
1979-07-23 03:33:25.080 ,0,1,1.,4.8,0.,4.8,0.,4.8,0.,4.8
1979-07-23 03:33:29.880 ,0,1,1.,4.8,0.,4.8,0.,4.8,0.,4.8
1979-07-23 03:33:34.680 ,4,1,3.,4.8,0.,4.8,0.,4.8,0.,4.8
1979-07-23 03:33:39.480 ,4,1,0.,4.8,0.,4.8,0.,4.8,0.,4.8
1979-07-23 03:33:44.280 ,4,1,2.,4.8,0.,4.8,0.,4.8,0.,4.8
1979-07-23 03:33:49.080 ,4,1,0.,4.8,0.,4.8,0.,4.8,0.,4.8
1979-07-23 03:33:53.880 ,4,1,0.,4.8,0.,4.8,0.,4.8,0.,4.8
1979-07-23 03:33:58.680 ,7,1,3.,4.8,0.,4.8,0.,4.8,0.,4.8
1979-07-23 03:34:03.480 ,7,1,1.,4.8,0.,4.8,0.,4.8,0.,4.8
1979-07-23 03:34:08.280 ,7,1,0.,4.8,0.,4.8,0.,4.8,0.,4.8
1979-07-23 03:34:13.080 ,7,1,0.,4.8,0.,4.8,0.,4.8,0.,4.8
1979-07-23 03:34:17.880 ,7,1,0.,4.8,0.,4.8,0.,4.8,0.,4.8
1979-07-23 03:34:22.680 ,3,1,2.,4.8,0.,4.8,0.,4.8,0.,4.8
1979-07-23 03:34:27.480 ,3,1,0.,4.8,0.,4.8,0.,4.8,0.,4.8
1979-07-23 03:34:32.280 ,3,1,1.,4.8,0.,4.8,0.,4.8,0.,4.8
1979-07-23 03:34:37.080 ,3,1,0.,4.8,0.,4.8,0.,4.8,0.,4.8
1979-07-23 03:34:41.880 ,3,1,2.,4.8,0.,4.8,0.,4.8,0.,4.8
1979-07-23 03:34:46.680 ,0,1,0.,4.8,0.,4.8,1.,4.8,0.,4.8
1979-07-23 03:34:51.480 ,0,1,1.,4.8,1.,4.8,0.,4.8,0.,4.8